• Join FlightAware (Why Join?)
  • Login
  • US Flag GB Flag 
19:47 EDT


 

Airport Tracker/Info


-or-


 

Live Flight TrackerFlight Track Log ✈ N75ZM ✈ 26-Jun-2013 ✈ KPDK - KSGJ

Flight Track Log - Related Links

Times and Time Zones

All times are in EDT time to prevent confusion due to time zone crossing. See the N75ZM flight status page for this flight to view local times or setup timezone preferences in your user account.

Time Position Orientation Groundspeed Altitude Reporting Facility
EDT Latitude Longitude Course Direction KTS MPH feet Rate Location/Type
07:06 33.8667 -84.3000 90° East 108 124 1,900  Level Atlanta TRACON
07:07 33.8667 -84.2500 90° East 161 185 2,500 660 Climbing Atlanta TRACON
07:08 33.8667 -84.2000 90° East 162 186 3,300 840 Climbing Atlanta TRACON
07:09 33.8667 -84.1500 90° East 152 175 4,100 840 Climbing Atlanta TRACON
07:10 33.8667 -84.1000 90° East 147 169 5,000 540 Climbing Atlanta TRACON
07:11 33.8667 -84.0500 90° East 175 201 5,200 300 Climbing Atlanta TRACON
07:12 33.8500 -84.0000 112° Southeast 180 207 5,600 600 Climbing Atlanta TRACON
07:13 33.8333 -83.9500 112° Southeast 147 169 6,400 660 Climbing Atlanta TRACON
07:14 33.8167 -83.9000 112° Southeast 151 174 7,000 540 Climbing Atlanta TRACON
07:15 33.8000 -83.8500 112° Southeast 149 171 7,600 540 Climbing Atlanta TRACON
07:16 33.7833 -83.8167 121° Southeast 152 175 8,200 480 Climbing Atlanta TRACON
07:17 33.7500 -83.7833 140° Southeast 146 168 8,700 420 Climbing Atlanta TRACON
07:18 33.7000 -83.7667 165° South 150 173 9,100 180 Climbing Atlanta TRACON
07:19 33.6667 -83.7333 140° Southeast 168 193 9,100  Level Atlanta TRACON
07:20 33.6333 -83.7167 157° South 175 201 9,100  Level Atlanta TRACON
07:21 33.5833 -83.6833 151° Southeast 173 199 9,200  Climbing Atlanta TRACON
07:22 33.5500 -83.6500 140° Southeast 173 199 9,100  Descending Atlanta TRACON
07:23 33.5167 -83.6333 157° South 172 198 9,200 -60 Climbing Atlanta TRACON
07:24 33.4667 -83.6000 151° Southeast 170 196 9,000 -120 Descending Atlanta TRACON
07:25 33.4167 -83.5667 151° Southeast 171 197 9,000  Level Atlanta TRACON
07:26 33.3833 -83.5500 157° South 170 196 9,000  Level Atlanta TRACON
07:27 33.3500 -83.5167 140° Southeast 171 197 9,100  Climbing Atlanta TRACON
07:28 33.3000 -83.4833 151° Southeast 172 198 9,100  Level Atlanta TRACON
07:29 33.2500 -83.4667 164° South 174 200 9,100  Level Atlanta TRACON
07:30 33.2167 -83.4333 140° Southeast 174 200 9,100  Level Atlanta TRACON
07:31 33.1833 -83.4000 140° Southeast 173 199 9,100  Level Atlanta TRACON
07:32 33.1333 -83.3833 164° South 172 198 9,100  Level Atlanta TRACON
07:33 33.1000 -83.3500 140° Southeast 173 199 9,100  Level Atlanta TRACON
07:34 33.0500 -83.3167 151° Southeast 170 196 9,100  Level Atlanta TRACON
07:35 33.0167 -83.3000 157° South 171 197 9,100  Level Atlanta TRACON
07:36 32.9667 -83.2667 151° Southeast 171 197 9,100  Level Atlanta TRACON
07:37 32.9333 -83.2333 140° Southeast 174 200 9,100  Level Atlanta TRACON
07:38 32.8833 -83.2167 164° South 172 198 9,100  Level Atlanta TRACON
07:39 32.8500 -83.1833 140° Southeast 175 201 9,100  Level Atlanta TRACON
07:39 32.8167 -83.1667 157° South 173 199 9,100  Level Atlanta TRACON
07:40 32.7667 -83.1333 151° Southeast 172 198 9,100  Level Atlanta TRACON
07:42 32.7167 -83.1000 151° Southeast 173 199 9,100  Level Atlanta TRACON
07:43 32.6833 -83.0667 140° Southeast 172 198 9,100  Level Atlanta TRACON
07:44 32.6333 -83.0500 164° South 170 196 9,100  Level Atlanta TRACON
07:44 32.6000 -83.0167 140° Southeast 172 198 9,100 -60 Level Atlanta TRACON
07:46 32.5214 -82.9714 154° Southeast 165 190 9,000 -60 Descending Jacksonville Center
07:47 32.4881 -82.9492 151° Southeast 170 196 9,000  Level Jacksonville Center
07:48 32.4442 -82.9197 150° Southeast 170 196 9,000  Level Jacksonville Center
07:49 32.3961 -82.8878 151° Southeast 176 203 9,000  Level Jacksonville Center
07:50 32.3564 -82.8656 155° Southeast 176 203 9,000  Level Jacksonville Center
07:51 32.3147 -82.8386 151° Southeast 176 203 9,100  Climbing Jacksonville Center
07:52 32.2750 -82.8114 150° Southeast 176 203 9,000 -60 Descending Jacksonville Center
07:53 32.2333 -82.7844 151° Southeast 176 203 9,000  Level Jacksonville Center
07:54 32.1936 -82.7575 150° Southeast 176 203 9,100  Climbing Jacksonville Center
07:55 32.1497 -82.7306 153° Southeast 176 203 9,100 -60 Level Jacksonville Center
07:56 32.1100 -82.7036 150° Southeast 176 203 9,000 -60 Descending Jacksonville Center
07:57 32.0661 -82.6744 151° Southeast 176 203 9,000  Level Jacksonville Center
07:58 32.0244 -82.6475 151° Southeast 176 203 9,100  Climbing Jacksonville Center
07:59 31.9825 -82.6231 154° Southeast 176 203 9,100  Level Jacksonville Center
08:00 31.9428 -82.5939 148° Southeast 176 203 9,200  Climbing Jacksonville Center
08:01 31.9008 -82.5672 152° Southeast 176 203 9,200 -60 Level Jacksonville Center
08:02 31.8611 -82.5403 150° Southeast 176 203 9,100 -60 Descending Jacksonville Center
08:03 31.8172 -82.5136 153° Southeast 176 203 9,100  Level Jacksonville Center
08:04 31.7775 -82.4869 150° Southeast 176 203 9,100  Level Jacksonville Center
08:05 31.7356 -82.4603 152° Southeast 176 203 9,100  Level Jacksonville Center
08:06 31.6917 -82.4336 153° Southeast 176 203 9,100  Level Jacksonville Center
08:07 31.6542 -82.4069 149° Southeast 176 203 9,100 -240 Level Jacksonville Center
08:08 31.6081 -82.3803 154° Southeast 176 203 8,700 -480 Descending Jacksonville Center
08:09 31.5619 -82.3514 152° Southeast 181 208 8,200 -300 Descending Jacksonville Center
08:10 31.5222 -82.3247 150° Southeast 181 208 8,200 -60 Level Jacksonville Center
08:11 31.4803 -82.2958 150° Southeast 176 203 8,100 -60 Descending Jacksonville Center
08:12 31.4342 -82.2667 152° Southeast 176 203 8,100  Level Jacksonville Center
08:13 31.3944 -82.2403 150° Southeast 176 203 8,200  Climbing Jacksonville Center
08:14 31.3547 -82.2211 158° South 171 197 8,100 -60 Descending Jacksonville Center
08:15 31.3169 -82.1947 149° Southeast 171 197 8,100  Level Jacksonville Center
08:16 31.2750 -82.1683 152° Southeast 171 197 8,100  Level Jacksonville Center
08:17 31.2269 -82.1369 151° Southeast 176 203 8,100 -60 Level Jacksonville Center
08:18 31.1892 -82.1106 149° Southeast 162 186 8,000  Descending Jacksonville Center
08:19 31.1450 -82.0842 153° Southeast 162 186 8,100  Climbing Jacksonville Center
08:20 31.1072 -82.0603 152° Southeast 166 191 8,100  Level Jacksonville Center
08:21 31.0675 -82.0339 150° Southeast 166 191 8,100  Level Jacksonville Center
08:22 31.0256 -82.0100 154° Southeast 166 191 8,100  Level Jacksonville Center
08:23 30.9858 -81.9839 151° Southeast 166 191 8,100 -60 Level Jacksonville Center
08:24 30.9458 -81.9600 153° Southeast 166 191 8,000  Descending Jacksonville Center
08:25 30.9039 -81.9314 150° Southeast 166 191 8,100  Climbing Jacksonville Center
08:26 30.8639 -81.9075 153° Southeast 166 191 8,100  Level Jacksonville Center
08:27 30.8219 -81.8814 152° Southeast 166 191 8,100 -60 Level Jacksonville Center
08:29 30.7739 -81.8481 149° Southeast 168 193 8,000 -60 Descending Jacksonville Center
08:30 30.7297 -81.8219 153° Southeast 169 194 8,000  Level Jacksonville Center
08:31 30.6878 -81.7958 152° Southeast 169 194 8,000  Level Jacksonville Center
08:32 30.6458 -81.7675 150° Southeast 170 196 8,000 -240 Level Jacksonville Center
08:33 30.5953 -81.7389 154° Southeast 175 201 7,500 -480 Descending Jacksonville Center
08:34 30.5492 -81.7081 150° Southeast 191 220 7,000 -480 Descending Jacksonville Center
08:35 30.4986 -81.6775 152° Southeast 217 250 6,500 -540 Descending Jacksonville Center
08:36 30.4547 -81.6492 151° Southeast 187 215 6,000 -540 Descending Jacksonville Center
08:37 30.4083 -81.6208 152° Southeast 182 209 5,500 -540 Descending Jacksonville Center
08:38 30.3622 -81.5925 152° Southeast 186 214 5,000 -540 Descending Jacksonville Center
08:39 30.3158 -81.5644 152° Southeast 185 213 4,500 -480 Descending Jacksonville Center
08:40 30.2675 -81.5336 151° Southeast 185 213 4,100 -360 Descending Jacksonville Center
08:41 30.2256 -81.5078 152° Southeast 179 206 3,800 -420 Descending Jacksonville Center
08:42 30.1814 -81.4797 151° Southeast 176 203 3,300 -540 Descending Jacksonville Center
08:43 30.1458 -81.4586 153° Southeast 169 194 2,800 -600 Descending Jacksonville Center
08:44 30.0994 -81.4281 150° Southeast 164 189 2,200 -480 Descending Jacksonville Center
08:45 30.0617 -81.4047 152° Southeast 155 178 1,800 -540 Descending Jacksonville Center
08:46 30.0281 -81.3908 160° South 153 176 1,200 -420 Descending Jacksonville Center
08:47 29.9883 -81.3842 172° South 133 153 1,000 -180 Descending Jacksonville Center
08:48 29.9797 -81.3747 136° Southeast 113 130 900 -120 Descending Jacksonville Center